Hourly Data Report for September 26, 2017

All times are specified in Local Standard Time (LST). Add 1 hour to adjust for Daylight Saving Time where and when it is observed.

FISHER BRANCH (AUT)
MANITOBA

51°05'00.100" N
97°33'16.200" W
253.00 m
50309J6
71442
WSZ

Download Data

Hourly Data (September 2017)
Hourly Data Report for September 26, 2017
Temp Definition
°C
Dew Point Temp Definition
°C
Rel Hum Definition
%
Wind Dir Definition
10's deg

Wind Spd Definition
km/h
Visibility Definition
km
Stn Press Definition
kPa
Hmdx Definition


Wind Chill Definition


Weather Definition


TIME
00:00 1.0 0.5 97 32 3   99.13     LegendNANA
01:00 1.0 0.7 97 32 5   99.09     LegendNANA
02:00 1.8 1.4 97 23 1   99.13     LegendNANA
03:00 3.0 2.6 97 35 2   99.13     LegendNANA
04:00 2.8 2.3 97 33 5   99.10     LegendNANA
05:00 3.0 2.6 97 34 6   99.08     LegendNANA
06:00 4.0 3.6 97 32 9   99.06     LegendNANA
07:00 4.4 3.9 97 32 6   99.04     LegendNANA
08:00 5.4 4.9 97 34 5   98.99     LegendNANA
09:00 7.3 6.6 96 33 6   98.97     LegendNANA
10:00 8.9 7.8 93 32 5   98.99     LegendNANA
11:00 10.1 7.0 81 2 5   98.95     LegendNANA
12:00 10.6 6.4 75 36 5   98.90     LegendNANA
13:00 10.8 6.1 73 1 5   98.86     LegendNANA
14:00 9.3 7.0 86 10 11   98.86     LegendNANA
15:00 9.2 7.3 88 11 7   98.83     LegendNANA
16:00 9.1 7.6 90 18 6   98.84     LegendNANA
17:00 8.9 7.6 92 13 4   98.82     LegendNANA
18:00 8.6 7.2 91 12 7   98.78     LegendNANA
19:00 7.0 6.3 95 16 2   98.76     LegendNANA
20:00 5.9 5.4 96 16 7   98.77     LegendNANA
21:00 6.0 5.4 96 19 8   98.76     LegendNANA
22:00 5.1 4.5 96 21 7   98.76     LegendNANA
23:00 4.8 4.3 97 20 5   98.74     LegendNANA

Notes on Data Quality.

Legend

  • E = Estimated
  • M = Missing
  • NA = Not Available
  • ‡ = Partner data that is not subject to review by the National Climate Archives
Date modified: